TimeEDT,TemperatureF,Dew PointF,Humidity,Sea Level PressureIn,VisibilityMPH,Wind Direction,Wind SpeedMPH,Gust SpeedMPH,PrecipitationIn,Events,Conditions,WindDirDegrees,DateUTC
12:15 AM,51.8,42.1,69,29.59,10.0,SW,3.5,-,N/A,,Mostly Cloudy,220,2012-10-16 04:15:00
12:35 AM,51.8,42.6,71,29.59,10.0,Calm,Calm,-,N/A,,Overcast,0,2012-10-16 04:35:00
12:55 AM,51.8,42.8,71,29.60,10.0,West,3.5,-,N/A,,Overcast,280,2012-10-16 04:55:00
1:15 AM,51.8,42.4,70,29.60,10.0,West,3.5,-,N/A,,Overcast,280,2012-10-16 05:15:00
1:35 AM,51.8,42.4,70,29.61,10.0,Calm,Calm,-,N/A,,Overcast,0,2012-10-16 05:35:00
1:55 AM,51.8,42.1,69,29.61,10.0,West,6.9,-,N/A,,Overcast,270,2012-10-16 05:55:00
2:15 AM,51.8,39.7,63,29.62,10.0,West,10.4,-,N/A,,Overcast,260,2012-10-16 06:15:00
2:35 AM,49.3,36.3,61,29.62,10.0,West,11.5,16.1,N/A,,Overcast,260,2012-10-16 06:35:00
2:55 AM,49.3,35.2,58,29.62,10.0,West,5.8,-,N/A,,Overcast,270,2012-10-16 06:55:00
3:15 AM,48.6,34.0,57,29.63,10.0,WSW,9.2,-,N/A,,Overcast,250,2012-10-16 07:15:00
3:55 AM,46.8,33.8,61,29.64,10.0,West,5.8,-,N/A,,Overcast,260,2012-10-16 07:55:00
4:15 AM,46.8,33.3,59,29.64,10.0,West,6.9,17.3,N/A,,Overcast,260,2012-10-16 08:15:00
4:35 AM,46.8,34.7,63,29.63,10.0,West,8.1,-,N/A,,Overcast,270,2012-10-16 08:35:00
4:55 AM,45.1,33.6,64,29.65,10.0,West,4.6,-,N/A,,Mostly Cloudy,270,2012-10-16 08:55:00
5:15 AM,44.2,33.6,66,29.65,10.0,West,4.6,-,N/A,,Mostly Cloudy,280,2012-10-16 09:15:00
5:35 AM,44.2,33.8,67,29.65,10.0,West,5.8,-,N/A,,Mostly Cloudy,280,2012-10-16 09:35:00
6:15 AM,42.1,33.8,72,29.66,10.0,West,6.9,-,N/A,,Mostly Cloudy,280,2012-10-16 10:15:00
6:35 AM,41.9,33.4,72,29.68,10.0,West,9.2,19.6,N/A,,Overcast,270,2012-10-16 10:35:00
6:55 AM,40.8,32.4,72,29.69,10.0,West,8.1,-,N/A,,Overcast,270,2012-10-16 10:55:00
7:15 AM,40.5,32.9,74,29.70,10.0,West,9.2,17.3,N/A,,Overcast,270,2012-10-16 11:15:00
7:35 AM,39.6,32.5,76,29.70,10.0,West,9.2,-,N/A,,Overcast,270,2012-10-16 11:35:00
7:55 AM,39.4,33.8,80,29.71,10.0,WSW,4.6,-,N/A,,Overcast,250,2012-10-16 11:55:00
8:15 AM,39.4,33.8,80,29.71,10.0,West,4.6,-,N/A,,Overcast,280,2012-10-16 12:15:00
8:35 AM,39.4,32.4,76,29.72,10.0,West,6.9,-,N/A,,Overcast,260,2012-10-16 12:35:00
9:15 AM,39.6,31.5,73,29.72,10.0,West,8.1,18.4,N/A,,Overcast,280,2012-10-16 13:15:00
9:35 AM,39.4,31.1,72,29.73,10.0,West,8.1,-,N/A,,Overcast,280,2012-10-16 13:35:00
9:55 AM,39.7,31.1,71,29.74,10.0,West,8.1,-,N/A,,Overcast,280,2012-10-16 13:55:00
10:15 AM,40.3,31.3,70,29.74,10.0,West,9.2,-,N/A,,Overcast,280,2012-10-16 14:15:00
10:35 AM,40.5,31.1,69,29.74,10.0,WNW,4.6,-,N/A,,Overcast,290,2012-10-16 14:35:00
10:55 AM,41.0,31.5,69,29.74,10.0,WNW,5.8,-,N/A,,Overcast,300,2012-10-16 14:55:00
11:15 AM,41.9,31.1,66,29.74,10.0,WNW,8.1,-,N/A,,Overcast,300,2012-10-16 15:15:00
11:35 AM,41.9,31.5,66,29.75,10.0,NW,6.9,-,N/A,,Overcast,310,2012-10-16 15:35:00
11:55 AM,41.9,32.0,68,29.75,10.0,WNW,6.9,-,N/A,,Overcast,300,2012-10-16 15:55:00
12:15 PM,41.9,32.0,68,29.76,10.0,West,4.6,-,N/A,,Overcast,280,2012-10-16 16:15:00
12:35 PM,42.1,31.8,67,29.76,10.0,WNW,4.6,-,N/A,,Overcast,290,2012-10-16 16:35:00
12:55 PM,43.5,32.0,64,29.76,10.0,West,4.6,-,N/A,,Overcast,280,2012-10-16 16:55:00
1:15 PM,43.7,32.4,64,29.76,10.0,West,8.1,-,N/A,,Overcast,280,2012-10-16 17:15:00
1:35 PM,44.1,32.5,64,29.76,10.0,West,6.9,-,N/A,,Overcast,280,2012-10-16 17:35:00
1:55 PM,44.2,32.5,63,29.76,10.0,West,6.9,17.3,N/A,,Overcast,280,2012-10-16 17:55:00
2:15 PM,44.4,32.0,62,29.76,10.0,WNW,8.1,16.1,N/A,,Overcast,290,2012-10-16 18:15:00
2:55 PM,46.8,33.8,61,29.77,10.0,West,6.9,-,N/A,,Overcast,270,2012-10-16 18:55:00
3:15 PM,46.8,32.4,57,29.76,10.0,WNW,8.1,16.1,N/A,,Overcast,290,2012-10-16 19:15:00
3:35 PM,46.8,32.9,59,29.77,10.0,West,9.2,17.3,N/A,,Overcast,280,2012-10-16 19:35:00
3:55 PM,46.8,33.3,59,29.77,10.0,West,9.2,-,N/A,,Overcast,270,2012-10-16 19:55:00
4:35 PM,46.8,33.1,59,29.78,10.0,West,8.1,18.4,N/A,,Overcast,270,2012-10-16 20:35:00
4:55 PM,46.8,33.8,61,29.78,10.0,West,5.8,-,N/A,,Overcast,280,2012-10-16 20:55:00
5:15 PM,46.8,33.6,60,29.79,10.0,West,6.9,-,N/A,,Overcast,280,2012-10-16 21:15:00
5:35 PM,46.8,33.6,60,29.79,10.0,West,6.9,-,N/A,,Overcast,280,2012-10-16 21:35:00
5:55 PM,46.2,33.4,61,29.80,10.0,West,4.6,-,N/A,,Overcast,260,2012-10-16 21:55:00
6:15 PM,45.5,32.7,61,29.80,10.0,WNW,5.8,-,N/A,,Overcast,300,2012-10-16 22:15:00
6:35 PM,44.2,32.0,62,29.81,10.0,WNW,8.1,-,N/A,,Overcast,290,2012-10-16 22:35:00
6:55 PM,44.2,32.2,63,29.82,10.0,West,3.5,-,N/A,,Overcast,270,2012-10-16 22:55:00
7:15 PM,43.3,32.0,64,29.83,10.0,West,3.5,-,N/A,,Overcast,280,2012-10-16 23:15:00
7:35 PM,41.9,29.8,62,29.83,10.0,West,4.6,-,N/A,,Mostly Cloudy,270,2012-10-16 23:35:00
7:55 PM,40.6,29.3,64,29.83,10.0,Calm,Calm,-,N/A,,Scattered Clouds,0,2012-10-16 23:55:00
8:15 PM,39.6,29.3,67,29.84,10.0,Calm,Calm,-,N/A,,Clear,0,2012-10-17 00:15:00
8:35 PM,38.3,29.7,71,29.84,10.0,Calm,Calm,-,N/A,,Clear,0,2012-10-17 00:35:00
8:55 PM,38.7,29.8,71,29.85,10.0,Calm,Calm,-,N/A,,Clear,0,2012-10-17 00:55:00
9:15 PM,38.3,29.8,72,29.85,10.0,West,3.5,-,N/A,,Clear,270,2012-10-17 01:15:00
9:35 PM,37.6,30.0,74,29.85,10.0,Calm,Calm,-,N/A,,Clear,0,2012-10-17 01:35:00
9:55 PM,37.0,29.7,75,29.86,10.0,Calm,Calm,-,N/A,,Clear,0,2012-10-17 01:55:00
10:15 PM,36.9,30.4,77,29.87,10.0,Calm,Calm,-,N/A,,Clear,0,2012-10-17 02:15:00
10:35 PM,36.9,31.1,80,29.87,10.0,Calm,Calm,-,N/A,,Clear,0,2012-10-17 02:35:00
10:55 PM,37.9,30.9,76,29.88,10.0,Calm,Calm,-,N/A,,Mostly Cloudy,0,2012-10-17 02:55:00
11:15 PM,36.9,31.5,81,29.88,10.0,Calm,Calm,-,N/A,,Overcast,0,2012-10-17 03:15:00
11:35 PM,36.1,31.5,83,29.88,10.0,Calm,Calm,-,N/A,,Scattered Clouds,0,2012-10-17 03:35:00
11:55 PM,32.7,29.8,89,29.89,10.0,Calm,Calm,-,N/A,,Clear,0,2012-10-17 03:55:00